This is the latest recevied weather packets stored in our database for station/object OK2JF-6. If no packets are shown the sender has not sent any weather packets the latest 10 day(s).
| Time | Temp. | Humidity | Pressure | Rain* | Wind** | Luminosity | Snow |
|---|---|---|---|---|---|---|---|
| 1777583043 | 3.33° C | 69% | 1100 hPa | 0 mm | - | 0 W/m² | - |
| 1777582817 | 3.33° C | 69% | 1099.8 hPa | 0 mm | - | 0 W/m² | - |
| 1777582503 | 3.89° C | 68% | 1100.3 hPa | 0 mm | - | 0 W/m² | - |
| 1777582323 | 3.89° C | 68% | 1100.3 hPa | 0 mm | - | 0 W/m² | - |
| 1777582217 | 3.89° C | 68% | 1100.1 hPa | 0 mm | - | 0 W/m² | - |
| 1777582143 | 3.89° C | 69% | 1100.2 hPa | 0 mm | - | 0 W/m² | - |
| 1777581723 | 3.89° C | 66% | 1100.1 hPa | 0 mm | - | 0 W/m² | - |
| 1777581484 | 3.89° C | 69% | 1100.2 hPa | 0 mm | - | 0 W/m² | - |
| 1777581063 | 3.89° C | 62% | 1100.2 hPa | 0 mm | - | 0 W/m² | - |
| 1777581003 | 3.89° C | 62% | 1100.1 hPa | 0 mm | - | 0 W/m² | - |
| 1777580943 | 3.89° C | 62% | 1100.1 hPa | 0 mm | - | 0 W/m² | - |
| 1777580103 | 4.44° C | 62% | 1100.2 hPa | 0 mm | - | 0 W/m² | - |
| 1777579563 | 4.44° C | 60% | 1100 hPa | 0 mm | - | 0 W/m² | - |
| 1777579323 | 5° C | 60% | 1100.1 hPa | 0 mm | - | 0 W/m² | - |
| 1777579023 | 5° C | 60% | 1100.2 hPa | 0 mm | - | 0 W/m² | - |
| 1777578723 | 5° C | 57% | 1100.1 hPa | 0 mm | - | 0 W/m² | - |
| 1777578484 | 5° C | 58% | 1100.1 hPa | 0 mm | - | 0 W/m² | - |
| 1777578063 | 5.56° C | 59% | 1099.7 hPa | 0 mm | - | 0 W/m² | - |
| 1777577823 | 5.56° C | 59% | 1099.8 hPa | 0 mm | - | 0 W/m² | - |
| 1777576863 | 6.11° C | 54% | 1099.7 hPa | 0 mm | - | 0 W/m² | - |
| 1777576804 | 6.11° C | 53% | 1099.7 hPa | 0 mm | - | 0 W/m² | - |
| 1777575964 | 6.67° C | 53% | 1099.5 hPa | 0 mm | - | 0 W/m² | - |
| 1777575903 | 6.67° C | 54% | 1099.4 hPa | 0 mm | - | 0 W/m² | - |
| 1777575377 | 7.22° C | 51% | 1099.4 hPa | 0 mm | - | 0 W/m² | - |
| 1777575304 | 7.22° C | 50% | 1099.1 hPa | 0 mm | - | 0 W/m² | - |
* Rain latest hour (hover to see other rain measurements)
** Current wind speed in m/s (hover to see current wind gust speed)